Year,Month,Day,Hour,Minute,Value (Times are PST for temperature in C)
2013,09,09,00,00,14.40
2013,09,09,00,01,14.40
2013,09,09,00,02,14.40
2013,09,09,00,03,14.40
2013,09,09,00,04,14.40
2013,09,09,00,05,14.30
2013,09,09,00,06,14.30
2013,09,09,00,07,14.30
2013,09,09,00,08,14.30
2013,09,09,00,09,14.30
2013,09,09,00,10,14.30
2013,09,09,00,11,14.30
2013,09,09,00,12,14.20
2013,09,09,00,13,14.20
2013,09,09,00,14,14.20
2013,09,09,00,15,14.20
2013,09,09,00,16,14.20
2013,09,09,00,17,14.20
2013,09,09,00,18,14.20
2013,09,09,00,19,14.20
2013,09,09,00,20,14.20
2013,09,09,00,21,14.20
2013,09,09,00,22,14.20
2013,09,09,00,23,14.20
2013,09,09,00,24,14.20
2013,09,09,00,25,14.20
2013,09,09,00,26,14.20
2013,09,09,00,27,14.20
2013,09,09,00,28,14.20
2013,09,09,00,29,14.20
2013,09,09,00,30,14.10
2013,09,09,00,31,14.10
2013,09,09,00,32,14.10
2013,09,09,00,33,14.10
2013,09,09,00,34,14.00
2013,09,09,00,35,14.00
2013,09,09,00,36,13.90
2013,09,09,00,37,13.80
2013,09,09,00,38,13.70
2013,09,09,00,39,13.70
2013,09,09,00,40,13.70
2013,09,09,00,41,13.60
2013,09,09,00,42,13.60
2013,09,09,00,43,13.60
2013,09,09,00,44,13.50
2013,09,09,00,45,13.50
2013,09,09,00,46,13.50
2013,09,09,00,47,13.50
2013,09,09,00,48,13.50
2013,09,09,00,49,13.40
2013,09,09,00,50,13.40
2013,09,09,00,51,13.40
2013,09,09,00,52,13.40
2013,09,09,00,53,13.40
2013,09,09,00,54,13.40
2013,09,09,00,55,13.30
2013,09,09,00,56,13.30
2013,09,09,00,57,13.30
2013,09,09,00,58,13.30
2013,09,09,00,59,13.30
2013,09,09,01,00,13.30
2013,09,09,01,01,13.30
2013,09,09,01,02,13.30
2013,09,09,01,03,13.30
2013,09,09,01,04,13.30
2013,09,09,01,05,13.30
2013,09,09,01,06,13.40
2013,09,09,01,07,13.40
2013,09,09,01,08,13.40
2013,09,09,01,09,13.40
2013,09,09,01,10,13.40
2013,09,09,01,11,13.40
2013,09,09,01,12,13.40
2013,09,09,01,13,13.40
2013,09,09,01,14,13.40
2013,09,09,01,15,13.40
2013,09,09,01,16,13.40
2013,09,09,01,17,13.40
2013,09,09,01,18,13.40
2013,09,09,01,19,13.40
2013,09,09,01,20,13.40
2013,09,09,01,21,13.40
2013,09,09,01,22,13.40
2013,09,09,01,23,13.40
2013,09,09,01,24,13.40
2013,09,09,01,25,13.40
2013,09,09,01,26,13.40
2013,09,09,01,27,13.40
2013,09,09,01,28,13.40
2013,09,09,01,29,13.40
2013,09,09,01,30,13.40
2013,09,09,01,31,13.40
2013,09,09,01,32,13.40
2013,09,09,01,33,13.40
2013,09,09,01,34,13.40
2013,09,09,01,35,13.40
2013,09,09,01,36,13.40
2013,09,09,01,37,13.40
2013,09,09,01,38,13.40
2013,09,09,01,39,13.40
2013,09,09,01,40,13.40
2013,09,09,01,41,13.40
2013,09,09,01,42,13.40
2013,09,09,01,43,13.40
2013,09,09,01,44,13.30
2013,09,09,01,45,13.30
2013,09,09,01,46,13.30
2013,09,09,01,47,13.30
2013,09,09,01,48,13.30
2013,09,09,01,49,13.30
2013,09,09,01,50,13.30
2013,09,09,01,51,13.30
2013,09,09,01,52,13.30
2013,09,09,01,53,13.30
2013,09,09,01,54,13.30
2013,09,09,01,55,13.30
2013,09,09,01,56,13.30
2013,09,09,01,57,13.30
2013,09,09,01,58,13.30
2013,09,09,01,59,13.30
2013,09,09,02,00,13.30
2013,09,09,02,01,13.30
2013,09,09,02,02,13.30
2013,09,09,02,03,13.30
2013,09,09,02,04,13.30
2013,09,09,02,05,13.30
2013,09,09,02,06,13.30
2013,09,09,02,07,13.30
2013,09,09,02,08,13.30
2013,09,09,02,09,13.30
2013,09,09,02,10,13.30
2013,09,09,02,11,13.30
2013,09,09,02,12,13.30
2013,09,09,02,13,13.30
2013,09,09,02,14,13.30
2013,09,09,02,15,13.30
2013,09,09,02,16,13.30
2013,09,09,02,17,13.30
2013,09,09,02,18,13.30
2013,09,09,02,19,13.30
2013,09,09,02,20,13.20
2013,09,09,02,21,13.20
2013,09,09,02,22,13.20
2013,09,09,02,23,13.20
2013,09,09,02,24,13.20
2013,09,09,02,25,13.20
2013,09,09,02,26,13.20
2013,09,09,02,27,13.20
2013,09,09,02,28,13.20
2013,09,09,02,29,13.20
2013,09,09,02,30,13.20
2013,09,09,02,31,13.20
2013,09,09,02,32,13.20
2013,09,09,02,33,13.20
2013,09,09,02,34,13.20
2013,09,09,02,35,13.20
2013,09,09,02,36,13.20
2013,09,09,02,37,13.20
2013,09,09,02,38,13.20
2013,09,09,02,39,13.20
2013,09,09,02,40,13.20
2013,09,09,02,41,13.20
2013,09,09,02,42,13.20
2013,09,09,02,43,13.20
2013,09,09,02,44,13.20
2013,09,09,02,45,13.20
2013,09,09,02,46,13.20
2013,09,09,02,47,13.20
2013,09,09,02,48,13.20
2013,09,09,02,49,13.20
2013,09,09,02,50,13.20
2013,09,09,02,51,13.20
2013,09,09,02,52,13.20
2013,09,09,02,53,13.20
2013,09,09,02,54,13.20
2013,09,09,02,55,13.20
2013,09,09,02,56,13.20
2013,09,09,02,57,13.20
2013,09,09,02,58,13.20
2013,09,09,02,59,13.10
2013,09,09,03,00,13.10
2013,09,09,03,01,13.10
2013,09,09,03,02,13.10
2013,09,09,03,03,13.10
2013,09,09,03,04,13.10
2013,09,09,03,05,13.10
2013,09,09,03,06,13.10
2013,09,09,03,07,13.10
2013,09,09,03,08,13.10
2013,09,09,03,09,13.10
2013,09,09,03,10,13.00
2013,09,09,03,11,13.00
2013,09,09,03,12,13.00
2013,09,09,03,13,13.00
2013,09,09,03,14,13.00
2013,09,09,03,15,13.00
2013,09,09,03,16,12.90
2013,09,09,03,17,12.90
2013,09,09,03,18,12.90
2013,09,09,03,19,12.90
2013,09,09,03,20,12.80
2013,09,09,03,21,12.80
2013,09,09,03,22,12.80
2013,09,09,03,23,12.80
2013,09,09,03,24,12.80
2013,09,09,03,25,12.80
2013,09,09,03,26,12.80
2013,09,09,03,27,12.80
2013,09,09,03,28,12.70
2013,09,09,03,29,12.70
2013,09,09,03,30,12.70
2013,09,09,03,31,12.70
2013,09,09,03,32,12.70
2013,09,09,03,33,12.60
2013,09,09,03,34,12.60
2013,09,09,03,35,12.60
2013,09,09,03,36,12.60
2013,09,09,03,37,12.60
2013,09,09,03,38,12.60
2013,09,09,03,39,12.50
2013,09,09,03,40,12.50
2013,09,09,03,41,12.50
2013,09,09,03,42,12.50
2013,09,09,03,43,12.50
2013,09,09,03,44,12.40
2013,09,09,03,45,12.40
2013,09,09,03,46,12.40
2013,09,09,03,47,12.40
2013,09,09,03,48,12.40
2013,09,09,03,49,12.30
2013,09,09,03,50,12.30
2013,09,09,03,51,12.30
2013,09,09,03,52,12.30
2013,09,09,03,53,12.30
2013,09,09,03,54,12.30
2013,09,09,03,55,12.30
2013,09,09,03,56,12.30
2013,09,09,03,57,12.30
2013,09,09,03,58,12.30
2013,09,09,03,59,12.30
2013,09,09,04,00,12.30
2013,09,09,04,01,12.30
2013,09,09,04,02,12.30
2013,09,09,04,03,12.30
2013,09,09,04,04,12.30
2013,09,09,04,05,12.30
2013,09,09,04,06,12.30
2013,09,09,04,07,12.30
2013,09,09,04,08,12.30
2013,09,09,04,09,12.20
2013,09,09,04,10,12.20
2013,09,09,04,11,12.20
2013,09,09,04,12,12.20
2013,09,09,04,13,12.20
2013,09,09,04,14,12.20
2013,09,09,04,15,12.20
2013,09,09,04,16,12.30
2013,09,09,04,17,12.30
2013,09,09,04,18,12.30
2013,09,09,04,19,12.30
2013,09,09,04,20,12.30
2013,09,09,04,21,12.20
2013,09,09,04,22,12.20
2013,09,09,04,23,12.20
2013,09,09,04,24,12.30
2013,09,09,04,25,12.30
2013,09,09,04,26,12.20
2013,09,09,04,27,12.20
2013,09,09,04,28,12.20
2013,09,09,04,29,12.20
2013,09,09,04,30,12.20
2013,09,09,04,31,12.20
2013,09,09,04,32,12.20
2013,09,09,04,33,12.20
2013,09,09,04,34,12.20
2013,09,09,04,35,12.20
2013,09,09,04,36,12.20
2013,09,09,04,37,12.20
2013,09,09,04,38,12.20
2013,09,09,04,39,12.20
2013,09,09,04,40,12.20
2013,09,09,04,41,12.20
2013,09,09,04,42,12.20
2013,09,09,04,43,12.10
2013,09,09,04,44,12.10
2013,09,09,04,45,12.10
2013,09,09,04,46,12.10
2013,09,09,04,47,12.10
2013,09,09,04,48,12.10
2013,09,09,04,49,12.10
2013,09,09,04,50,12.20
2013,09,09,04,51,12.20
2013,09,09,04,52,12.20
2013,09,09,04,53,12.20
2013,09,09,04,54,12.20
2013,09,09,04,55,12.20
2013,09,09,04,56,12.20
2013,09,09,04,57,12.20
2013,09,09,04,58,12.20
2013,09,09,04,59,12.20
2013,09,09,05,00,12.20
2013,09,09,05,01,12.20
2013,09,09,05,02,12.20
2013,09,09,05,03,12.10
2013,09,09,05,04,12.10
2013,09,09,05,05,12.10
2013,09,09,05,06,12.10
2013,09,09,05,07,12.10
2013,09,09,05,08,12.10
2013,09,09,05,09,12.00
2013,09,09,05,10,12.00
2013,09,09,05,11,12.00
2013,09,09,05,12,12.00
2013,09,09,05,13,12.00
2013,09,09,05,14,12.00
2013,09,09,05,15,11.90
2013,09,09,05,16,11.90
2013,09,09,05,17,11.90
2013,09,09,05,18,11.90
2013,09,09,05,19,11.80
2013,09,09,05,20,11.80
2013,09,09,05,21,11.80
2013,09,09,05,22,11.80
2013,09,09,05,23,11.80
2013,09,09,05,24,11.70
2013,09,09,05,25,11.70
2013,09,09,05,26,11.70
2013,09,09,05,27,11.60
2013,09,09,05,28,11.60
2013,09,09,05,29,11.60
2013,09,09,05,30,11.60
2013,09,09,05,31,11.60
2013,09,09,05,32,11.60
2013,09,09,05,33,11.60
2013,09,09,05,34,11.50
2013,09,09,05,35,11.40
2013,09,09,05,36,11.40
2013,09,09,05,37,11.40
2013,09,09,05,38,11.40
2013,09,09,05,39,11.40
2013,09,09,05,40,11.40
2013,09,09,05,41,11.40
2013,09,09,05,42,11.40
2013,09,09,05,43,11.40
2013,09,09,05,44,11.40
2013,09,09,05,45,11.40
2013,09,09,05,46,11.40
2013,09,09,05,47,11.40
2013,09,09,05,48,11.40
2013,09,09,05,49,11.40
2013,09,09,05,50,11.40
2013,09,09,05,51,11.40
2013,09,09,05,52,11.40
2013,09,09,05,53,11.40
2013,09,09,05,54,11.40
2013,09,09,05,55,11.40
2013,09,09,05,56,11.40
2013,09,09,05,57,11.40
2013,09,09,05,58,11.40
2013,09,09,05,59,11.40
2013,09,09,06,00,11.40
2013,09,09,06,01,11.40
2013,09,09,06,02,11.40
2013,09,09,06,03,11.40
2013,09,09,06,04,11.40
2013,09,09,06,05,11.40
2013,09,09,06,06,11.40
2013,09,09,06,07,11.40
2013,09,09,06,08,11.40
2013,09,09,06,09,11.40
2013,09,09,06,10,11.40
2013,09,09,06,11,11.40
2013,09,09,06,12,11.40
2013,09,09,06,13,11.40
2013,09,09,06,14,11.40
2013,09,09,06,15,11.40
2013,09,09,06,16,11.40
2013,09,09,06,17,11.40
2013,09,09,06,18,11.40
2013,09,09,06,19,11.40
2013,09,09,06,20,11.40
2013,09,09,06,21,11.40
2013,09,09,06,22,11.40
2013,09,09,06,23,11.40
2013,09,09,06,24,11.40
2013,09,09,06,25,11.40
2013,09,09,06,26,11.40
2013,09,09,06,27,11.40
2013,09,09,06,28,11.40
2013,09,09,06,29,11.40
2013,09,09,06,30,11.40
2013,09,09,06,31,11.40
2013,09,09,06,32,11.40
2013,09,09,06,33,11.40
2013,09,09,06,34,11.40
2013,09,09,06,35,11.40
2013,09,09,06,36,11.40
2013,09,09,06,37,11.30
2013,09,09,06,38,11.30
2013,09,09,06,39,11.30
2013,09,09,06,40,11.30
2013,09,09,06,41,11.30
2013,09,09,06,42,11.30
2013,09,09,06,43,11.30
2013,09,09,06,44,11.30
2013,09,09,06,45,11.30
2013,09,09,06,46,11.30
2013,09,09,06,47,11.30
2013,09,09,06,48,11.20
2013,09,09,06,49,11.20
2013,09,09,06,50,11.20
2013,09,09,06,51,11.20
2013,09,09,06,52,11.20
2013,09,09,06,53,11.20
2013,09,09,06,54,11.10
2013,09,09,06,55,11.10
2013,09,09,06,56,11.10
2013,09,09,06,57,11.10
2013,09,09,06,58,11.10
2013,09,09,06,59,11.10
2013,09,09,07,00,11.10
2013,09,09,07,01,11.10
2013,09,09,07,02,11.10
2013,09,09,07,03,11.10
2013,09,09,07,04,11.10
2013,09,09,07,05,11.10
2013,09,09,07,06,11.10
2013,09,09,07,07,11.10
2013,09,09,07,08,11.10
2013,09,09,07,09,11.10
2013,09,09,07,10,11.10
2013,09,09,07,11,11.10
2013,09,09,07,12,11.10
2013,09,09,07,13,11.10
2013,09,09,07,14,11.10
2013,09,09,07,15,11.10
2013,09,09,07,16,11.10
2013,09,09,07,17,11.20
2013,09,09,07,18,11.20
2013,09,09,07,19,11.20
2013,09,09,07,20,11.20
2013,09,09,07,21,11.20
2013,09,09,07,22,11.20
2013,09,09,07,23,11.20
2013,09,09,07,24,11.20
2013,09,09,07,25,11.20
2013,09,09,07,26,11.20
2013,09,09,07,27,11.20
2013,09,09,07,28,11.30
2013,09,09,07,29,11.30
2013,09,09,07,30,11.40
2013,09,09,07,31,11.40
2013,09,09,07,32,11.40
2013,09,09,07,33,11.50
2013,09,09,07,34,11.60
2013,09,09,07,35,11.60
2013,09,09,07,36,11.60
2013,09,09,07,37,11.70
2013,09,09,07,38,11.70
2013,09,09,07,39,11.80
2013,09,09,07,40,11.80
2013,09,09,07,41,11.80
2013,09,09,07,42,11.80
2013,09,09,07,43,11.90
2013,09,09,07,44,11.90
2013,09,09,07,45,12.00
2013,09,09,07,46,12.00
2013,09,09,07,47,12.00
2013,09,09,07,48,12.00
2013,09,09,07,49,12.10
2013,09,09,07,50,12.10
2013,09,09,07,51,12.20
2013,09,09,07,52,12.20
2013,09,09,07,53,12.30
2013,09,09,07,54,12.30
2013,09,09,07,55,12.40
2013,09,09,07,56,12.40
2013,09,09,07,57,12.50
2013,09,09,07,58,12.50
2013,09,09,07,59,12.60
2013,09,09,08,00,12.60
2013,09,09,08,01,12.70
2013,09,09,08,02,12.70
2013,09,09,08,03,12.70
2013,09,09,08,04,12.70
2013,09,09,08,05,12.70
2013,09,09,08,06,12.70
2013,09,09,08,07,12.70
2013,09,09,08,08,12.80
2013,09,09,08,09,12.80
2013,09,09,08,10,12.90
2013,09,09,08,11,13.00
2013,09,09,08,12,13.10
2013,09,09,08,13,13.10
2013,09,09,08,14,13.20
2013,09,09,08,15,13.30
2013,09,09,08,16,13.30
2013,09,09,08,17,13.30
2013,09,09,08,18,13.40
2013,09,09,08,19,13.40
2013,09,09,08,20,13.50
2013,09,09,08,21,13.50
2013,09,09,08,22,13.50
2013,09,09,08,23,13.50
2013,09,09,08,24,13.50
2013,09,09,08,25,13.60
2013,09,09,08,26,13.60
2013,09,09,08,27,13.60
2013,09,09,08,28,13.70
2013,09,09,08,29,13.70
2013,09,09,08,30,13.80
2013,09,09,08,31,13.90
2013,09,09,08,32,13.90
2013,09,09,08,33,14.00
2013,09,09,08,34,14.00
2013,09,09,08,35,14.10
2013,09,09,08,36,14.20
2013,09,09,08,37,14.20
2013,09,09,08,38,14.30
2013,09,09,08,39,14.50
2013,09,09,08,40,14.50
2013,09,09,08,41,14.60
2013,09,09,08,42,14.80
2013,09,09,08,43,14.80
2013,09,09,08,44,14.90
2013,09,09,08,45,14.90
2013,09,09,08,46,14.90
2013,09,09,08,47,15.00
2013,09,09,08,48,15.10
2013,09,09,08,49,15.20
2013,09,09,08,50,15.20
2013,09,09,08,51,15.30
2013,09,09,08,52,15.30
2013,09,09,08,53,15.30
2013,09,09,08,54,15.40
2013,09,09,08,55,15.50
2013,09,09,08,56,15.50
2013,09,09,08,57,15.60
2013,09,09,08,58,15.70
2013,09,09,08,59,15.80
2013,09,09,09,00,15.80
2013,09,09,09,01,16.00
2013,09,09,09,02,16.10
2013,09,09,09,03,16.10
2013,09,09,09,04,16.20
2013,09,09,09,05,16.20
2013,09,09,09,06,16.30
2013,09,09,09,07,16.30
2013,09,09,09,08,16.40
2013,09,09,09,09,16.40
2013,09,09,09,10,16.40
2013,09,09,09,11,16.40
2013,09,09,09,12,16.40
2013,09,09,09,13,16.40
2013,09,09,09,14,16.40
2013,09,09,09,15,16.40
2013,09,09,09,16,16.40
2013,09,09,09,17,16.60
2013,09,09,09,18,16.60
2013,09,09,09,19,16.60
2013,09,09,09,20,16.70
2013,09,09,09,21,16.70
2013,09,09,09,22,16.80
2013,09,09,09,23,17.00
2013,09,09,09,24,17.10
2013,09,09,09,25,17.20
2013,09,09,09,26,17.30
2013,09,09,09,27,17.30
2013,09,09,09,28,17.20
2013,09,09,09,29,17.30
2013,09,09,09,30,17.30
2013,09,09,09,31,17.30
2013,09,09,09,32,17.50
2013,09,09,09,33,17.50
2013,09,09,09,34,17.60
2013,09,09,09,35,17.60
2013,09,09,09,36,17.70
2013,09,09,09,37,17.80
2013,09,09,09,38,17.80
2013,09,09,09,39,17.80
2013,09,09,09,40,17.90
2013,09,09,09,41,17.90
2013,09,09,09,42,17.90
2013,09,09,09,43,17.90
2013,09,09,09,44,18.00
2013,09,09,09,45,18.10
2013,09,09,09,46,18.10
2013,09,09,09,47,18.20
2013,09,09,09,48,18.20
2013,09,09,09,49,18.20
2013,09,09,09,50,18.20
2013,09,09,09,51,18.20
2013,09,09,09,52,18.20
2013,09,09,09,53,18.20
2013,09,09,09,54,18.20
2013,09,09,09,55,18.20
2013,09,09,09,56,18.20
2013,09,09,09,57,18.20
2013,09,09,09,58,18.20
2013,09,09,09,59,18.20
2013,09,09,10,00,18.40
2013,09,09,10,01,18.50
2013,09,09,10,02,18.50
2013,09,09,10,03,18.60
2013,09,09,10,04,18.60
2013,09,09,10,05,18.70
2013,09,09,10,06,18.70
2013,09,09,10,07,18.80
2013,09,09,10,08,18.70
2013,09,09,10,09,18.70
2013,09,09,10,10,18.60
2013,09,09,10,11,18.50
2013,09,09,10,12,18.40
2013,09,09,10,13,18.40
2013,09,09,10,14,18.50
2013,09,09,10,15,18.50
2013,09,09,10,16,18.50
2013,09,09,10,17,18.40
2013,09,09,10,18,18.30
2013,09,09,10,19,18.20
2013,09,09,10,20,18.20
2013,09,09,10,21,18.10
2013,09,09,10,22,18.00
2013,09,09,10,23,17.90
2013,09,09,10,24,17.90
2013,09,09,10,25,17.80
2013,09,09,10,26,17.70
2013,09,09,10,27,17.60
2013,09,09,10,28,17.50
2013,09,09,10,29,17.40
2013,09,09,10,30,17.30
2013,09,09,10,31,17.20
2013,09,09,10,32,17.10
2013,09,09,10,33,17.10
2013,09,09,10,34,17.10
2013,09,09,10,35,17.10
2013,09,09,10,36,17.10
2013,09,09,10,37,17.10
2013,09,09,10,38,17.10
2013,09,09,10,39,17.00
2013,09,09,10,40,17.00
2013,09,09,10,41,17.00
2013,09,09,10,42,17.00
2013,09,09,10,43,17.00
2013,09,09,10,44,17.00
2013,09,09,10,45,17.00
2013,09,09,10,46,16.90
2013,09,09,10,47,16.80
2013,09,09,10,48,16.80
2013,09,09,10,49,16.90
2013,09,09,10,50,16.90
2013,09,09,10,51,17.00
2013,09,09,10,52,17.00
2013,09,09,10,53,17.10
2013,09,09,10,54,17.10
2013,09,09,10,55,17.20
2013,09,09,10,56,17.30
2013,09,09,10,57,17.30
2013,09,09,10,58,17.40
2013,09,09,10,59,17.50
2013,09,09,11,00,17.60
2013,09,09,11,01,17.70
2013,09,09,11,02,17.70
2013,09,09,11,03,17.80
2013,09,09,11,04,17.90
2013,09,09,11,05,17.90
2013,09,09,11,06,17.90
2013,09,09,11,07,17.90
2013,09,09,11,08,17.80
2013,09,09,11,09,17.70
2013,09,09,11,10,17.60
2013,09,09,11,11,17.60
2013,09,09,11,12,17.50
2013,09,09,11,13,17.50
2013,09,09,11,14,17.60
2013,09,09,11,15,17.70
2013,09,09,11,16,17.70
2013,09,09,11,17,17.70
2013,09,09,11,18,17.80
2013,09,09,11,19,17.80
2013,09,09,11,20,17.90
2013,09,09,11,21,18.00
2013,09,09,11,22,18.10
2013,09,09,11,23,18.10
2013,09,09,11,24,18.20
2013,09,09,11,25,18.20
2013,09,09,11,26,18.30
2013,09,09,11,27,18.30
2013,09,09,11,28,18.20
2013,09,09,11,29,18.20
2013,09,09,11,30,18.20
2013,09,09,11,31,18.20
2013,09,09,11,32,18.20
2013,09,09,11,33,18.20
2013,09,09,11,34,18.30
2013,09,09,11,35,18.30
2013,09,09,11,36,18.40
2013,09,09,11,37,18.40
2013,09,09,11,38,18.50
2013,09,09,11,39,18.50
2013,09,09,11,40,18.60
2013,09,09,11,41,18.60
2013,09,09,11,42,18.70
2013,09,09,11,43,18.80
2013,09,09,11,44,18.80
2013,09,09,11,45,18.90
2013,09,09,11,46,18.90
2013,09,09,11,47,19.10
2013,09,09,11,48,19.20
2013,09,09,11,49,19.30
2013,09,09,11,50,19.40
2013,09,09,11,51,19.50
2013,09,09,11,52,19.60
2013,09,09,11,53,19.70
2013,09,09,11,54,19.80
2013,09,09,11,55,19.90
2013,09,09,11,56,19.90
2013,09,09,11,57,19.90
2013,09,09,11,58,19.90
2013,09,09,11,59,19.80
2013,09,09,12,00,19.90
2013,09,09,12,01,19.90
2013,09,09,12,02,20.00
2013,09,09,12,03,20.10
2013,09,09,12,04,20.20
2013,09,09,12,05,20.20
2013,09,09,12,06,20.10
2013,09,09,12,07,20.00
2013,09,09,12,08,19.90
2013,09,09,12,09,19.90
2013,09,09,12,10,19.90
2013,09,09,12,11,19.90
2013,09,09,12,12,19.90
2013,09,09,12,13,19.90
2013,09,09,12,14,19.90
2013,09,09,12,15,19.90
2013,09,09,12,16,19.90
2013,09,09,12,17,20.00
2013,09,09,12,18,20.10
2013,09,09,12,19,20.20
2013,09,09,12,20,20.30
2013,09,09,12,21,20.30
2013,09,09,12,22,20.30
2013,09,09,12,23,20.30
2013,09,09,12,24,20.30
2013,09,09,12,25,20.40
2013,09,09,12,26,20.40
2013,09,09,12,27,20.30
2013,09,09,12,28,20.30
2013,09,09,12,29,20.40
2013,09,09,12,30,20.50
2013,09,09,12,31,20.60
2013,09,09,12,32,20.70
2013,09,09,12,33,20.70
2013,09,09,12,34,20.70
2013,09,09,12,35,20.70
2013,09,09,12,36,20.70
2013,09,09,12,37,20.60
2013,09,09,12,38,20.50
2013,09,09,12,39,20.50
2013,09,09,12,40,20.60
2013,09,09,12,41,20.70
2013,09,09,12,42,20.70
2013,09,09,12,43,20.70
2013,09,09,12,44,20.70
2013,09,09,12,45,20.70
2013,09,09,12,46,20.80
2013,09,09,12,47,20.70
2013,09,09,12,48,20.70
2013,09,09,12,49,20.60
2013,09,09,12,50,20.60
2013,09,09,12,51,20.60
2013,09,09,12,52,20.50
2013,09,09,12,53,20.50
2013,09,09,12,54,20.60
2013,09,09,12,55,20.60
2013,09,09,12,56,20.50
2013,09,09,12,57,20.50
2013,09,09,12,58,20.50
2013,09,09,12,59,20.60
2013,09,09,13,00,20.60
2013,09,09,13,01,20.50
2013,09,09,13,02,20.30
2013,09,09,13,03,20.20
2013,09,09,13,04,20.10
2013,09,09,13,05,20.10
2013,09,09,13,06,19.90
2013,09,09,13,07,19.90
2013,09,09,13,08,19.90
2013,09,09,13,09,20.00
2013,09,09,13,10,20.10
2013,09,09,13,11,20.20
2013,09,09,13,12,20.40
2013,09,09,13,13,20.50
2013,09,09,13,14,20.60
2013,09,09,13,15,20.70
2013,09,09,13,16,20.70
2013,09,09,13,17,20.70
2013,09,09,13,18,20.60
2013,09,09,13,19,20.50
2013,09,09,13,20,20.40
2013,09,09,13,21,20.30
2013,09,09,13,22,20.30
2013,09,09,13,23,20.30
2013,09,09,13,24,20.20
2013,09,09,13,25,20.20
2013,09,09,13,26,20.20
2013,09,09,13,27,20.20
2013,09,09,13,28,20.20
2013,09,09,13,29,20.20
2013,09,09,13,30,20.20
2013,09,09,13,31,20.10
2013,09,09,13,32,20.00
2013,09,09,13,33,19.90
2013,09,09,13,34,19.80
2013,09,09,13,35,19.70
2013,09,09,13,36,19.70
2013,09,09,13,37,19.70
2013,09,09,13,38,19.80
2013,09,09,13,39,19.90
2013,09,09,13,40,19.90
2013,09,09,13,41,19.90
2013,09,09,13,42,19.90
2013,09,09,13,43,19.90
2013,09,09,13,44,19.90
2013,09,09,13,45,19.80
2013,09,09,13,46,19.90
2013,09,09,13,47,19.90
2013,09,09,13,48,19.90
2013,09,09,13,49,19.90
2013,09,09,13,50,19.80
2013,09,09,13,51,19.70
2013,09,09,13,52,19.70
2013,09,09,13,53,19.70
2013,09,09,13,54,19.70
2013,09,09,13,55,19.80
2013,09,09,13,56,19.80
2013,09,09,13,57,19.80
2013,09,09,13,58,19.90
2013,09,09,13,59,20.00
2013,09,09,14,00,20.20
2013,09,09,14,01,20.10
2013,09,09,14,02,20.10
2013,09,09,14,03,20.20
2013,09,09,14,04,20.20
2013,09,09,14,05,20.10
2013,09,09,14,06,19.90
2013,09,09,14,07,19.90
2013,09,09,14,08,19.80
2013,09,09,14,09,19.80
2013,09,09,14,10,19.90
2013,09,09,14,11,20.00
2013,09,09,14,12,20.20
2013,09,09,14,13,20.30
2013,09,09,14,14,20.30
2013,09,09,14,15,20.30
2013,09,09,14,16,20.40
2013,09,09,14,17,20.30
2013,09,09,14,18,20.40
2013,09,09,14,19,20.40
2013,09,09,14,20,20.40
2013,09,09,14,21,20.40
2013,09,09,14,22,20.50
2013,09,09,14,23,20.60
2013,09,09,14,24,20.70
2013,09,09,14,25,20.80
2013,09,09,14,26,20.80
2013,09,09,14,27,20.80
2013,09,09,14,28,20.90
2013,09,09,14,29,20.90
2013,09,09,14,30,20.80
2013,09,09,14,31,20.80
2013,09,09,14,32,20.60
2013,09,09,14,33,20.50
2013,09,09,14,34,20.40
2013,09,09,14,35,20.40
2013,09,09,14,36,20.50
2013,09,09,14,37,20.50
2013,09,09,14,38,20.50
2013,09,09,14,39,20.50
2013,09,09,14,40,20.50
2013,09,09,14,41,20.40
2013,09,09,14,42,20.40
2013,09,09,14,43,20.40
2013,09,09,14,44,20.50
2013,09,09,14,45,20.50
2013,09,09,14,46,20.50
2013,09,09,14,47,20.50
2013,09,09,14,48,20.50
2013,09,09,14,49,20.50
2013,09,09,14,50,20.60
2013,09,09,14,51,20.70
2013,09,09,14,52,20.80
2013,09,09,14,53,20.90
2013,09,09,14,54,20.90
2013,09,09,14,55,20.90
2013,09,09,14,56,21.00
2013,09,09,14,57,21.10
2013,09,09,14,58,21.10
2013,09,09,14,59,21.10
2013,09,09,15,00,21.10
2013,09,09,15,01,21.10
2013,09,09,15,02,21.10
2013,09,09,15,03,21.20
2013,09,09,15,04,21.20
2013,09,09,15,05,21.20
2013,09,09,15,06,21.30
2013,09,09,15,07,21.30
2013,09,09,15,08,21.30
2013,09,09,15,09,21.20
2013,09,09,15,10,21.10
2013,09,09,15,11,21.10
2013,09,09,15,12,21.00
2013,09,09,15,13,21.00
2013,09,09,15,14,21.10
2013,09,09,15,15,21.20
2013,09,09,15,16,21.20
2013,09,09,15,17,21.30
2013,09,09,15,18,21.30
2013,09,09,15,19,21.30
2013,09,09,15,20,21.30
2013,09,09,15,21,21.30
2013,09,09,15,22,21.30
2013,09,09,15,23,21.30
2013,09,09,15,24,21.40
2013,09,09,15,25,21.40
2013,09,09,15,26,21.40
2013,09,09,15,27,21.40
2013,09,09,15,28,21.30
2013,09,09,15,29,21.40
2013,09,09,15,30,21.40
2013,09,09,15,31,21.40
2013,09,09,15,32,21.40
2013,09,09,15,33,21.40
2013,09,09,15,34,21.40
2013,09,09,15,35,21.40
2013,09,09,15,36,21.30
2013,09,09,15,37,21.30
2013,09,09,15,38,21.30
2013,09,09,15,39,21.30
2013,09,09,15,40,21.30
2013,09,09,15,41,21.30
2013,09,09,15,42,21.30
2013,09,09,15,43,21.30
2013,09,09,15,44,21.30
2013,09,09,15,45,21.30
2013,09,09,15,46,21.30
2013,09,09,15,47,21.30
2013,09,09,15,48,21.30
2013,09,09,15,49,21.30
2013,09,09,15,50,21.30
2013,09,09,15,51,21.30
2013,09,09,15,52,21.30
2013,09,09,15,53,21.30
2013,09,09,15,54,21.30
2013,09,09,15,55,21.30
2013,09,09,15,56,21.30
2013,09,09,15,57,21.40
2013,09,09,15,58,21.50
2013,09,09,15,59,21.60
2013,09,09,16,00,21.60
2013,09,09,16,01,21.60
2013,09,09,16,02,21.50
2013,09,09,16,03,21.40
2013,09,09,16,04,21.30
2013,09,09,16,05,21.40
2013,09,09,16,06,21.30
2013,09,09,16,07,21.30
2013,09,09,16,08,21.30
2013,09,09,16,09,21.40
2013,09,09,16,10,21.40
2013,09,09,16,11,21.40
2013,09,09,16,12,21.40
2013,09,09,16,13,21.50
2013,09,09,16,14,21.60
2013,09,09,16,15,21.70
2013,09,09,16,16,21.70
2013,09,09,16,17,21.80
2013,09,09,16,18,21.80
2013,09,09,16,19,21.70
2013,09,09,16,20,21.70
2013,09,09,16,21,21.70
2013,09,09,16,22,21.70
2013,09,09,16,23,21.60
2013,09,09,16,24,21.50
2013,09,09,16,25,21.40
2013,09,09,16,26,21.30
2013,09,09,16,27,21.30
2013,09,09,16,28,21.20
2013,09,09,16,29,21.20
2013,09,09,16,30,21.10
2013,09,09,16,31,21.10
2013,09,09,16,32,21.00
2013,09,09,16,33,21.00
2013,09,09,16,34,21.00
2013,09,09,16,35,20.90
2013,09,09,16,36,21.00
2013,09,09,16,37,21.00
2013,09,09,16,38,21.00
2013,09,09,16,39,21.00
2013,09,09,16,40,21.00
2013,09,09,16,41,20.90
2013,09,09,16,42,20.90
2013,09,09,16,43,21.00
2013,09,09,16,44,21.00
2013,09,09,16,45,21.10
2013,09,09,16,46,21.10
2013,09,09,16,47,21.20
2013,09,09,16,48,21.30
2013,09,09,16,49,21.30
2013,09,09,16,50,21.30
2013,09,09,16,51,21.30
2013,09,09,16,52,21.30
2013,09,09,16,53,21.30
2013,09,09,16,54,21.30
2013,09,09,16,55,21.30
2013,09,09,16,56,21.30
2013,09,09,16,57,21.30
2013,09,09,16,58,21.30
2013,09,09,16,59,21.30
2013,09,09,17,00,21.20
2013,09,09,17,01,21.20
2013,09,09,17,02,21.20
2013,09,09,17,03,21.20
2013,09,09,17,04,21.20
2013,09,09,17,05,21.20
2013,09,09,17,06,21.30
2013,09,09,17,07,21.30
2013,09,09,17,08,21.30
2013,09,09,17,09,21.30
2013,09,09,17,10,21.30
2013,09,09,17,11,21.30
2013,09,09,17,12,21.30
2013,09,09,17,13,21.30
2013,09,09,17,14,21.30
2013,09,09,17,15,21.20
2013,09,09,17,16,21.20
2013,09,09,17,17,21.10
2013,09,09,17,18,21.00
2013,09,09,17,19,21.00